World > North America > United States > Texas

Frame Switch, Texas Regional Weather

Lat: 30.56N, Lon: 97.46W
Wx Zone: TXZ173Web Search
Frame Switch Weather Warning NWS WEATHER ALERT FOR THE FRAME SWITCH, TX AREA - Issued: 341 AM CDT Fri Apr 16 2021 Frame Switch Weather Warning  

Helpful Tip: Abbreviated, 7 Day, 14 Day Forecasts. There is a weather forecast for every taste.

Feedback


°F Click to change Frame Switch hourly weather to Imperial units.Click to change Frame Switch hourly weather to Metric units. °C
Frame Switch Weather Map
UTC Time: 4/16/2021, 23:34
Your Time:

Frame Switch, TX Regional Weather

Expires:202104170000;;662235
ASUS44 KSJT 162315
RWRSJT
WEST CENTRAL TEXAS REGIONAL WEATHER ROUNDUP
NATIONAL WEATHER SERVICE SAN ANGELO TX
600 PM CDT FRI APR 16 2021

NOTE: "FAIR" INDICATES FEW OR NO CLOUDS BELOW 12,000 FEET WITH NO
SIGNIFICANT WEATHER AND/OR OBSTRUCTIONS TO VISIBILITY.


TXZ145-158-159-173-191-192-194-205-207-220-223-170000-
CENTRAL AND SOUTH CENTRAL TEXAS
  
CITY           SKY/WX    TMP DP  RH WIND       PRES   REMARKS
AUSTIN/BERGSTM FOG       65  65 100 N15       29.78R VSB 1            
WACO           CLOUDY    65  60  84 N10       29.82R                  
HILLSBORO      CLOUDY    62  62 100 N8        29.83R                  
TEMPLE         CLOUDY    63  63 100 N7        29.83R                  
KILLEEN-GRAY   CLOUDY    64  60  86 N16       29.82R                  
FORT HOOD      CLOUDY    65  61  87 N16       29.83R                  
GEORGETOWN     CLOUDY    66  63  90 N9        29.83R                  
LAGO VISTA     CLOUDY    64  64  97 N9        29.82R                  
SAN MARCOS     CLOUDY    68  68 100 N13       29.79R                  
NEW BRAUNFELS  CLOUDY    71  67  87 N14       29.76R                  
RANDOLPH AFB   CLOUDY    72  70  94 N14       29.75                   
SAN ANTONIO    CLOUDY    74  67  78 N13G22    29.76R                  
STINSON        CLOUDY    75  68  78 N12       29.73R                  
PLEASANTON     NOT AVBL                                               
LA GRANGE      CLOUDY    69  69 100 N9G16     29.75R                  
GIDDINGS       DRIZZLE   65  63  95 N7        29.78R                  
$$


SKY/WX - Weather  TMP - Temperature  DP - Dew Point  RH - Relative Humidity
WIND - Wind Direction/Speed PRES - Barometric Pressure VSB - Visibility
WCI - Wind Chill Index E13G22 Wind - East Wind 13 mph/Gusts of 22 mph